Other Public Products
Issued by NWS Grand Forks, ND

Home | Current Version | Previous Version | Graphics & Text | Print | Product List | Glossary On
Versions: 1 2 3 4 5 6 7 8 9 10 11 12 13 14 15 16 17 18 19 20 21 22 23 24 25 26 27 28 29 30 31 32 33 34 35 36 37 38 39 40 41 42 43 44 45 46 47 48 49 50
701
FPUS83 KFGF 051710
OPUFGF
PRAIRIE TO PINES WEATHER ROUNDUP
NATIONAL WEATHER SERVICE EASTERN NORTH DAKOTA/GRAND FORKS ND
1100 AM CST FRI FEB 05 2016

 **SATELLITE DATA USED TO AUGMENT SKY COVER AT AUTOMATED STATIONS**
 *****  WEATHER ACROSS EASTERN NORTH DAKOTA  *****

CITY           SKY/WX    TMP DP  RH WIND       PRES   REMARKS
GRAND FORKS    MOSUNNY   21  14  74 NW8       30.15R WCI  11
GRAND FORKS AF MOSUNNY   20  14  76 N8        30.14R WCI  11
GRAND CITY NWS   N/A     23 N/A N/A NW6         N/A  WCI  16
BUXTON           N/A     25  21  83 SW3         N/A
DEVILS LAKE    CLOUDY    18  14  84 NW8       30.15R WCI   8
FARGO          CLOUDY    23  18  81 S13       30.14F WCI  11
WAHPETON ARPT  CLOUDY    21  18  86 SE8       30.18R WCI  12
$$

 *****  WEATHER ACROSS CENTRAL AND WESTERN NORTH DAKOTA  *****

CITY           SKY/WX    TMP DP  RH WIND       PRES   REMARKS
JAMESTOWN      SUNNY     24  17  74 NW14      30.13R WCI  12
BISMARCK       SUNNY     32  20  61 NW9       30.19S WCI  24
MINOT          PTSUNNY   28  16  60 SW12      30.14S WCI  18
MINOT AFB      PTSUNNY   28  20  73 CALM      30.13S
GARRISON         N/A     26  17  68 W13       30.15F WCI  15
WILLISTON      SUNNY     22  18  85 SW8       30.16F WCI  12
DICKINSON      SUNNY     27  21  78 W13       30.14F WCI  16
HETTINGER      SUNNY     31  23  72 W15       30.19F WCI  20
$$

 *****  OTHER OBSERVATIONS NORTHEAST NORTH DAKOTA  *****

CITY           SKY/WX    TMP DP  RH WIND       PRES   REMARKS
WALHALLA       FAIR      21  19  93 NW8       30.16R WCI  12
LANGDON        PTSUNNY   16  10  79 NW9       30.12R WCI   4
CAVALIER       FAIR      19  14  79 N7        30.17R WCI  10
GRAFTON        FAIR      19  14  79 CALM      30.17S
CANDO          NOT AVBL
FORT TOTTEN      N/A     21  15  76 NW3       29.95S
ROLLA          PTSUNNY   23  18  80 NW6       30.11S WCI  16
RUGBY          FAIR      18  16  93 W9        30.15R WCI   6
 ***** THE ABOVE OBSERVATIONS ARE NON NWS ARE NOT QUALITY
        CONTROLLED AND MAY MIS-REPORT RAIN FOR SNOW...
$$

 *****  OTHER OBSERVATIONS SOUTHEAST NORTH DAKOTA *****

CITY           SKY/WX    TMP DP  RH WIND       PRES   REMARKS
COOPERSTOWN    NOT AVBL
VALLEY CITY    PTSUNNY   27  23  86 NW13      30.15R WCI  16
OAKES          PTSUNNY   27  25  93 SW6       30.14S WCI  20
GWINNER        NOT AVBL
BUFFALO          N/A     27  21  78 NW9         N/A  WCI  18
WYNDMERE         N/A     23  19  86 S6          N/A  WCI  16
 ***** THE ABOVE OBSERVATIONS ARE NON NWS ARE NOT QUALITY
       CONTROLLED AND MAY MIS-REPORT RAIN FOR SNOW...
$$

  *****  WEATHER ACROSS NORTHERN MINNESOTA  *****

CITY           SKY/WX    TMP DP  RH WIND       PRES   REMARKS
FLAG ISLAND    MOSUNNY   12   9  85 SE3       30.12F
WARROAD        SUNNY     18  10  73 CALM      30.13F
ROSEAU         SUNNY     18  12  79 S3        30.13F
HALLOCK        SUNNY     18  12  79 S6        30.15R WCI   9
THF RVR FALLS  PTSUNNY   19  10  68 SW7       30.15R WCI  10
HALSTAD        NOT AVBL
FOSSTON        SUNNY     21  16  79 S10       30.12S WCI  10
BAUDETTE       CLOUDY    19  11  70 S7        30.12F WCI  10
WASKISH        PTSUNNY   23  16  74 S8        30.13F WCI  14
CROOKSTON      SUNNY     19  16  86 W6        30.16R WCI  11
$$
  *****  WEATHER ACROSS CENTRAL AND WEST MINNESOTA  *****

CITY           SKY/WX    TMP DP  RH WIND       PRES   REMARKS
BEMIDJI        CLOUDY    19  12  76 S9        30.12F WCI   7
PARK RAPIDS    CLOUDY    21  15  78 S9        30.13F WCI  11
WADENA         LGT SNOW  19  16  86 S9        30.15F WCI   9
DETROIT LAKES  MIX PCPN  27  21  80 SW6       30.14R WCI  20
MOORHEAD       LGT RAIN  21  18  86 S9        30.16S WCI  11
FERGUS FALLS   LGT SNOW  21  18  86 S8        30.20S WCI  12
ELBOW LAKE     CLOUDY    20  15  80 S14       30.17S WCI   7
MORRIS MN      CLOUDY    21  16  79 S15       30.17S WCI   8
STAPLES        CLOUDY    19  14  79 S9        30.17F WCI   9
WHEATON        CLOUDY    25  19  80 SE6       30.19S WCI  18
$$
  *****  WEATHER ELSEWHERE ACROSS MINNESOTA  *****

CITY           SKY/WX    TMP DP  RH WIND       PRES   REMARKS
DULUTH         CLOUDY    17   8  67 SW12      30.22F WCI   4
INTRNTL FALLS  LGT SNOW  17  12  80 SE6       30.15F WCI   9
ELY            CLOUDY    12  10  92 S9        30.20S WCI   0
CLOQUET        CLOUDY    16   9  73 S8        30.23F WCI   5
BRAINERD       CLOUDY    19  13  77 S15       30.20F WCI   5
HIBBING        CLOUDY    14   8  77 VRB6      30.19F WCI   5
ALEXANDRIA     CLOUDY    22  13  68 S17       30.17S WCI   8
SAINT CLOUD    CLOUDY    19  13  77 S12       30.25F WCI   7
MINNEAPOLIS    CLOUDY    18  12  77 SE6       30.32F WCI  10
$$

  *****  WEATHER ACROSS SOUTH DAKOTA  *****

CITY           SKY/WX    TMP DP  RH WIND       PRES   REMARKS
SIOUX FALLS    CLOUDY    24  17  74 S15       30.21S WCI  11
BROOKINGS      CLOUDY    24  17  74 S14       30.16S WCI  12
WATERTOWN      CLOUDY    24  16  71 S14       30.13S WCI  12
HURON          LGT SNOW  25  20  81 S3        30.17R
SISSETON         N/A     28  21  75 W5        30.15R WCI  23
ABERDEEN       LGT SNOW  27  22  81 SW5       30.17R VSB 1   WCI  22
MITCHELL       CLOUDY    28  21  75 S7        30.18S WCI  21
PIERRE         CLOUDY    35  30  82 NW17      30.17R WCI  25
MOBRIDGE       PTSUNNY   34  28  79 NW12      30.15S
RAPID CITY     SUNNY     32  24  72 N16       30.22R WCI  21
$$

  *****  SOME WEATHER IN NEARBY STATES *****

CITY           SKY/WX    TMP DP  RH WIND       PRES   REMARKS
GLASGOW MT     SUNNY     21  18  88 E5        30.15S WCI  15
GREAT FALLS MT SUNNY     39  21  48 SW24G32   30.16F
CHEYENNE WY    PTSUNNY   26  10  50 NW14G22   30.28R WCI  14
SCOTTSBLUFF NE SUNNY     26  14  60 NW10      30.31R WCI  16
OMAHA NE       CLOUDY    27  22  81 S12       30.35F WCI  17
DES MOINES IA  CLOUDY    23  15  71 S7        30.41S WCI  15
DAVENPORT IA   SUNNY     28  20  71 W6        30.42R WCI  22
CHICAGO IL     PTSUNNY   29  22  75 NW8       30.36R WCI  21
EAU CLAIRE WI  CLOUDY    15  13  91 CALM      30.35S
LA CROSSE WI   CLOUDY    17  12  80 S5        30.39S WCI  10
$$

  *****  SOME NATIONAL WEATHER *****

CITY           SKY/WX    TMP DP  RH WIND       PRES   REMARKS
LA GUARDIA NY  CLOUDY    34  27  75 N18G28    30.07F WCI  23
RALEIGH NC     MOSUNNY   44  22  41 VRB6G16   30.33F
ATLANTA GA     MOSUNNY   44  14  29 N12       30.40S
NEW ORLEANS LA SUNNY     49  26  41 NE8       30.52F
OKLAHOMA CITY  MOSUNNY   49  25  39 S23       30.34F
ALBUQUERQUE NM MOSUNNY   29  13  51 NW10      30.41R WCI  20
SALT LAKE CITY PTSUNNY   28  23  81 SE9       30.57R WCI  19
LOS ANGELES CA MOSUNNY   61  28  28 NE5       30.33S
BOISE ID       FOG       29  29 100 CALM      30.54R VSB<1/4
SEATTLE WA     PTSUNNY   44  42  93 CALM      30.19F
$$

*** WEATHER ACROSS MANITOBA...SASKATCHEWAN AND ONTARIO ***
                ***ONTARIO***

CITY           SKY/WX    TMP DP  RH WIND       PRES   REMARKS
GERALDTON      PTSUNNY   10   5  79 W9        30.17F WCI  -2
THUNDER BAY    MOSUNNY   12   7  79 S5        30.27F WCI   4
SIOUX LOOKOUT  FLURRIES   3   0  85 SE5       30.16F WCI  -6
TORONTO        PTSUNNY   32  21  64 NW8       30.27F WCI  25
BIG TROUT LK   PTSUNNY  -17 -22  76 S5        30.15F WCI -29
PICKLE LAKE    FLURRIES   3  -4  72 W5        30.12F WCI  -6
DRYDEN         FLURRIES   9   5  85 S7        30.14F WCI  -3
KENORA         FLURRIES  12   9  85 S6        30.11F WCI   3
$$
                *** MANITOBA***

CITY           SKY/WX    TMP DP  RH WIND       PRES   REMARKS
BRANDON        CLOUDY    14  10  85 W6        30.13R WCI   5
DAUPHIN        FLURRIES  18  14  86 W7        30.12S WCI   8
ISLAND LAKE    FLURRIES  -4  -9  77 S5        30.12F WCI -15
PILOT MOUND    NOT AVBL
THE PAS        FLURRIES   5   1  85 SE5       30.09F WCI  -4
THOMPSON       CRYSTALS -15 -20  76 NW5       30.14R WCI -27
WINNIPEG       PTSUNNY   10   9  92 NW5       30.15F WCI   2
LYNN LAKE      SUNNY    -20 -26  76 N3        30.10R
CHURCHILL      CRYSTALS -35 -44  61 NW6       30.18R WCI -53
GILLAM         CRYSTALS -20 -27  69 NW7       30.13F WCI -37
$$
                ***SASKATCHEWAN***

CITY           SKY/WX    TMP DP  RH WIND       PRES   REMARKS
ESTEVAN        PTSUNNY   23  18  80 SW10G17   30.10S WCI  12
KINDERSLEY     PTSUNNY   14  12  92 S8        29.96F WCI   3
LLOYDMINSTER   PTSUNNY   23  14  68 SW12      29.87F WCI  12
PRINCE ALBERT  CLOUDY    14  10  85 SW3       30.01S
REGINA         MOSUNNY   18  16  93 S5        30.06F WCI  11
YORKTON        MOSUNNY   16  12  86 SW9       30.04F WCI   4
N. BATTLEFORD  PTSUNNY   14  12  92 SE7       29.97S WC1F1C2F2C3F3C4F4C5F5C6F6C7F7C8F8C9F9CaFaCbFbCcFcCdFdCe!



USA.gov is the U.S. government's official web portal to all federal, state and local government web resources and services.